Location: Observatory
(49.4490°N, 2.6360°W)
Time: 13:18:33
(UTC+01:00)

DIWATA 2B (PO-101) - Pass Details

Date: 21 April 2025
Orbit: 567 x 578 km, 98.1° (Epoch: 15 May)

Event Time Altitude Azimuth Distance (km) Brightness Sun altitude
Rises 05:07:02 0° 151° (SSE) 2,764 ? -9.6°
Reaches altitude 10° 05:09:12 10° 147° (SSE) 1,869 ? -9.3°
Maximum altitude 05:13:08 52° 71° (ENE) 715 ? -8.7°
Drops below altitude 10° 05:17:05 10° 355° (N) 1,879 ? -8.2°
Sets 05:19:16 0° 350° (N) 2,781 ? -7.9°
